ZHUHAI-1 OHS-01 (43439 NORAD) Tracking and Keplerian Element Data

This shows tracking and keplerian element data for the satellite.

Feedback or suggestion? Click here.




ElementValue
Catalog43439
NameZHUHAI-1 OHS-01
Epoch Orbit450
Epoch Day145.8469264
Epoch Year2018
RAAN228.145
Inclination97.3948
Eccentricity0.0011691
Argument of Perigee166.9605
Mean Anonmoly287.885
Mean Motion15.17738959
Decay Rate1.954E-05
L11 43439U 18040A 18145.84692640 .00001954 00000-0 10000-3 0 9997
L22 43439 97.3948 228.1450 0011691 166.9605 287.8850 15.17738959 4500

Live tracking and technical data element details for ZHUHAI-1 OHS-01 (NORAD 43439). ZHUHAI-1 OHS-01 can be tracked NOW for your location showing map with azimuth and elevation plus other details from your city location.

Track the satellite on the map from your city or location and see movement details for azimuth, elevation, latitude, longitude, range, height, and movement on the map or in text.







IsCatalogInMostPopularTable: catalog: 43439, numindb: 26
Update: records affected: 1



GetName: 43439 ZHUHAI-1 OHS-01

Hit Count: updated at: Wed, 18 Jul 2018 20:26:56 GMT